Main page


Airports :

Alpine, Texas, United States

Alpine–Casparis Municipal Airport

latitude: 30-23-03N, longitude: 103-41-00W, elevation: 1376 m

Current weather observation

The report was made 17 minutes ago, at 21:35 UTC
Wind 11 kt from the West/Southwest
Temperature 31°C
Humidity 9%
Pressure 1022 hPa
Visibility: 16.1 km
Clear sky

METAR: KE38 222135Z AUTO 24011KT 10SM CLR 31/M05 A3019 RMK AO2 T03091055

Time: 16:52 (21:52 UTC)

TAF: missing

Weather observations and forecasts of more than 4000 airports (METAR and TAF reports).

The available stations are represented by yellow and red dots on the map.

Hover mouse over dot to see the name of the station.

Then click to see weather observations and forecasts.

To change the map : click on the green buttons with a black cross to zoom in, on the green button with a dash to zoom out, or on the green arrows for adjacent maps.